This demonstration page uses our WeatherBlox Daily Observations layout. Learn more.

Left ArrowRight Arrow

Hourly Observations for June 10, 2019

Temp ( °F °C ) Dew Point ( °F °C ) Humidity (%) Winds ( mph kmh ) Pressure ( in mb ) Visibility ( mi km ) Precip ( " mm )
12:56 am 00:56 Partly Cloudy 59 15 43 6 55 55 NW 7 11 30.26 1025 10 16 0.00 0.00
1:56 am 01:56 Mostly Clear 57 14 45 7 63 63 NNW 6 9 30.26 1025 10 16 0.00 0.00
2:56 am 02:56 Clear 59 15 43 6 55 55 WNW 7 11 30.27 1025 10 16 0.00 0.00
3:56 am 03:56 Clear 57 14 43 6 59 59 NW 8 13 30.27 1025 10 16 0.00 0.00
4:56 am 04:56 Clear 55 13 43 6 63 63 NW 9 15 30.29 1026 10 16 0.00 0.00
5:56 am 05:56 Sunny 54 12 45 7 72 72 WNW 10 17 30.31 1026 10 16 0.00 0.00
6:56 am 06:56 Sunny 57 14 45 7 63 63 NW 9 15 30.32 1027 10 16 0.00 0.00
7:56 am 07:56 Sunny 61 16 46 8 59 59 NW 7 11 30.33 1027 10 16 0.00 0.00
8:56 am 08:56 Sunny 68 20 46 8 46 46 Calm 30.33 1027 10 16 0.00 0.00
9:56 am 09:56 Sunny 75 24 43 6 31 31 WNW 7 11 30.32 1027 10 16 0.00 0.00
10:56 am 10:56 Sunny 75 24 41 5 29 29 NW 12 19 30.31 1026 10 16 0.00 0.00
11:57 am 11:57 Mostly Sunny 75 24 41 5 29 29 NW 12 19 30.29 1026 10 16 0.00 0.00
12:56 pm 12:56 Mostly Sunny 82 28 37 3 20 20 W 10 17 30.28 1025 10 16 0.00 0.00
1:56 pm 13:56 Mostly Sunny 81 27 37 3 21 21 WNW 10 17 30.26 1025 10 16 0.00 0.00
2:56 pm 14:56 Mostly Sunny 82 28 37 3 20 20 WNW 10 17 30.23 1024 10 16 0.00 0.00
3:56 pm 15:56 Mostly Sunny 82 28 37 3 20 20 WNW 6 9 30.22 1023 7 11 0.00 0.00
4:56 pm 16:56 Sunny 82 28 37 3 20 20 NW 10 17 30.19 1023 7 11 0.00 0.00
5:56 pm 17:56 Sunny 82 28 37 3 20 20 WNW 5 7 30.17 1022 7 11 0.00 0.00
6:56 pm 18:56 Mostly Sunny 81 27 37 3 21 21 WSW 5 7 30.16 1021 7 11 0.00 0.00
7:56 pm 19:56 undefined N/A N/A N/A W 6 9 N/A N/A 0.00 0.00
8:56 pm 20:56 Clear 75 24 39 4 27 27 SW 5 7 30.16 1021 7 11 0.00 0.00
9:56 pm 21:56 Clear 72 22 39 4 31 31 SW 5 7 30.15 1021 7 11 0.00 0.00
10:56 pm 22:56 Clear 70 21 43 6 38 38 S 3 6 30.14 1021 10 16 0.00 0.00
11:56 pm 23:56 Mostly Clear 68 20 41 5 38 38 S 3 6 30.13 1020 10 16 0.00 0.00

Powered by AerisWeather